Location: Zagreb
(45.8000°N, 16.0000°E)
Time: 19:57:43
(UTC+02:00)

A-11 Canister half - Pass Details

Date: 18 August 2022
Orbit: 1524 x 1684 km, 47.3° (Epoch: 05 October)

Event Time Altitude Azimuth Distance (km) Brightness Sun altitude
Exits shadow 06:06:18 - 252° (WSW) 4,914 10.9 0.3°
Rises 06:06:22 0° 252° (WSW) 4,897 10.9 0.3°
Reaches altitude 10° 06:09:29 10° 253° (WSW) 3,923 10.5 0.8°
Maximum altitude 06:19:39 89° 163° (SSE) 1,689 9.4 2.5°
Drops below altitude 10° 06:29:52 10° 77° (ENE) 3,938 14.1 4.2°
Sets 06:33:01 0° 77° (ENE) 4,916 14.8 4.8°
